Saint Bonnet de Bellac- Haute Vienne - France
Donnes mto: samedi, 24/12/2011
Date Horaire Temp. E. Hum. E. P.atmo. Pluie Vent Direction Direction Ensoleilleme Solaire P. de rose Temp au vent Rafales
24/12/2011 00:00 6,6 C 93 % 1026,1 hPa 0,0 mm 4,7 km/h (1 Bft) N-NO 337 0 min 0 W/m 5,6 C 6,0 C 7,2 km/h (2 Bft)
24/12/2011 00:05 6,6 C 92 % 1026,1 hPa 0,0 mm 3,2 km/h (1 Bft) N-NO 337 0 min 0 W/m 5,4 C 6,6 C 4,0 km/h (1 Bft)
24/12/2011 00:10 6,5 C 92 % 1026,3 hPa 0,0 mm 7,9 km/h (2 Bft) NO 315 0 min 0 W/m 5,3 C 4,9 C 21,6 km/h (4 Bft)
24/12/2011 00:15 6,5 C 92 % 1026,5 hPa 0,0 mm 7,9 km/h (2 Bft) NO 315 0 min 0 W/m 5,3 C 4,9 C 15,5 km/h (3 Bft)
24/12/2011 00:20 6,4 C 92 % 1026,6 hPa 0,0 mm 6,1 km/h (2 Bft) O-SO 247 0 min 0 W/m 5,2 C 5,3 C 22,3 km/h (4 Bft)
24/12/2011 00:25 6,4 C 92 % 1026,6 hPa 0,0 mm 9,0 km/h (2 Bft) SO 225 0 min 0 W/m 5,2 C 4,5 C 16,2 km/h (3 Bft)
24/12/2011 00:30 6,4 C 92 % 1026,7 hPa 0,0 mm 6,5 km/h (2 Bft) N-NO 337 0 min 0 W/m 5,2 C 5,2 C 15,5 km/h (3 Bft)
24/12/2011 00:35 6,4 C 91 % 1026,7 hPa 0,0 mm 4,7 km/h (1 Bft) N-NO 337 0 min 0 W/m 5,0 C 5,8 C 6,8 km/h (2 Bft)
24/12/2011 00:40 6,3 C 91 % 1026,9 hPa 0,0 mm 7,2 km/h (2 Bft) O-NO 292 0 min 0 W/m 4,9 C 4,9 C 12,6 km/h (3 Bft)
24/12/2011 00:45 6,3 C 91 % 1027,0 hPa 0,0 mm 4,0 km/h (1 Bft) O 270 0 min 0 W/m 4,9 C 6,3 C 9,7 km/h (2 Bft)
24/12/2011 00:50 6,2 C 91 % 1027,1 hPa 0,0 mm 5,8 km/h (2 Bft) O 270 0 min 0 W/m 4,8 C 5,2 C 14,0 km/h (3 Bft)
24/12/2011 00:55 6,2 C 91 % 1027,1 hPa 0,0 mm 4,3 km/h (1 Bft) O-SO 247 0 min 0 W/m 4,8 C 6,2 C 11,5 km/h (2 Bft)
24/12/2011 01:00 6,1 C 91 % 1027,1 hPa 0,0 mm 2,5 km/h (1 Bft) O-NO 292 0 min 0 W/m 4,7 C 6,1 C 7,9 km/h (2 Bft)
24/12/2011 01:05 5,9 C 91 % 1027,1 hPa 0,0 mm 4,7 km/h (1 Bft) O 270 0 min 0 W/m 4,5 C 5,2 C 4,7 km/h (1 Bft)
24/12/2011 01:10 5,8 C 90 % 1027,1 hPa 0,0 mm 0,4 km/h (0 Bft) O-SO 247 0 min 0 W/m 4,3 C 5,8 C 3,6 km/h (1 Bft)
24/12/2011 01:15 5,7 C 90 % 1027,3 hPa 0,0 mm 4,7 km/h (1 Bft) N 360 0 min 0 W/m 4,2 C 5,0 C 6,8 km/h (2 Bft)
24/12/2011 01:20 5,5 C 90 % 1027,3 hPa 0,0 mm 4,0 km/h (1 Bft) O-SO 247 0 min 0 W/m 4,0 C 5,5 C 13,7 km/h (3 Bft)
24/12/2011 01:25 5,4 C 90 % 1027,4 hPa 0,0 mm 5,4 km/h (2 Bft) O-SO 247 0 min 0 W/m 3,9 C 4,4 C 6,8 km/h (2 Bft)
24/12/2011 01:30 5,2 C 90 % 1027,6 hPa 0,0 mm 6,1 km/h (2 Bft) O-NO 292 0 min 0 W/m 3,7 C 3,9 C 13,3 km/h (3 Bft)
24/12/2011 01:35 5,1 C 90 % 1027,7 hPa 0,0 mm 4,3 km/h (1 Bft) O 270 0 min 0 W/m 3,6 C 5,1 C 4,3 km/h (1 Bft)
24/12/2011 01:40 4,9 C 90 % 1027,7 hPa 0,0 mm 2,2 km/h (1 Bft) O 270 0 min 0 W/m 3,4 C 4,9 C 8,6 km/h (2 Bft)
24/12/2011 01:45 4,8 C 90 % 1027,8 hPa 0,0 mm 2,2 km/h (1 Bft) O 270 0 min 0 W/m 3,3 C 4,8 C 7,9 km/h (2 Bft)
24/12/2011 01:50 4,8 C 91 % 1027,9 hPa 0,0 mm 0,0 km/h (0 Bft) O 270 0 min 0 W/m 3,5 C 4,8 C 0,0 km/h (0 Bft)
24/12/2011 01:55 4,6 C 91 % 1028,0 hPa 0,0 mm 1,4 km/h (1 Bft) O-SO 247 0 min 0 W/m 3,3 C 4,6 C 6,5 km/h (2 Bft)
24/12/2011 02:02 4,6 C 91 % 1028,1 hPa 0,0 mm 2,2 km/h (1 Bft) NO 315 0 min 0 W/m 3,3 C 4,6 C 14,4 km/h (3 Bft)
24/12/2011 02:05 4,4 C 91 % 1028,2 hPa 0,0 mm 2,5 km/h (1 Bft) O 270 0 min 0 W/m 3,1 C 4,4 C 3,6 km/h (1 Bft)
24/12/2011 02:10 4,3 C 91 % 1028,1 hPa 0,0 mm 2,2 km/h (1 Bft) S-SO 202 0 min 0 W/m 3,0 C 4,3 C 8,6 km/h (2 Bft)
24/12/2011 02:15 4,3 C 91 % 1028,2 hPa 0,0 mm 0,0 km/h (0 Bft) O-SO 247 0 min 0 W/m 3,0 C 4,3 C 0,0 km/h (0 Bft)
24/12/2011 02:20 4,2 C 91 % 1028,2 hPa 0,0 mm 3,6 km/h (1 Bft) O 270 0 min 0 W/m 2,9 C 4,2 C 12,2 km/h (2 Bft)
24/12/2011 02:25 4,1 C 91 % 1028,2 hPa 0,0 mm 0,0 km/h (0 Bft) NO 315 0 min 0 W/m 2,8 C 4,1 C 0,0 km/h (0 Bft)
24/12/2011 02:30 3,9 C 91 % 1028,3 hPa 0,0 mm 1,1 km/h (1 Bft) NO 315 0 min 0 W/m 2,6 C 3,9 C 3,6 km/h (1 Bft)
24/12/2011 02:35 3,9 C 92 % 1028,5 hPa 0,0 mm 1,4 km/h (1 Bft) O-SO 247 0 min 0 W/m 2,7 C 3,9 C 1,4 km/h (1 Bft)
24/12/2011 02:40 3,8 C 92 % 1028,5 hPa 0,0 mm 1,1 km/h (1 Bft) O-NO 292 0 min 0 W/m 2,6 C 3,8 C 3,2 km/h (1 Bft)
24/12/2011 02:45 3,8 C 92 % 1028,7 hPa 0,0 mm 2,5 km/h (1 Bft) O-NO 292 0 min 0 W/m 2,6 C 3,8 C 8,6 km/h (2 Bft)
24/12/2011 02:50 3,8 C 92 % 1028,8 hPa 0,0 mm 3,6 km/h (1 Bft) O 270 0 min 0 W/m 2,6 C 3,8 C 8,3 km/h (2 Bft)
24/12/2011 02:55 3,6 C 92 % 1029,0 hPa 0,0 mm 4,0 km/h (1 Bft) O 270 0 min 0 W/m 2,4 C 3,6 C 4,0 km/h (1 Bft)
24/12/2011 03:00 3,6 C 92 % 1029,0 hPa 0,0 mm 1,1 km/h (1 Bft) O 270 0 min 0 W/m 2,4 C 3,6 C 1,1 km/h (1 Bft)
24/12/2011 03:05 3,6 C 92 % 1029,1 hPa 0,0 mm 0,4 km/h (0 Bft) O-SO 247 0 min 0 W/m 2,4 C 3,6 C 4,0 km/h (1 Bft)
24/12/2011 03:10 3,5 C 93 % 1029,2 hPa 0,0 mm 2,9 km/h (1 Bft) O 270 0 min 0 W/m 2,5 C 3,5 C 2,9 km/h (1 Bft)
24/12/2011 03:15 3,4 C 93 % 1029,3 hPa 0,0 mm 0,0 km/h (0 Bft) O 270 0 min 0 W/m 2,4 C 3,4 C 2,9 km/h (1 Bft)
24/12/2011 03:20 3,4 C 93 % 1029,5 hPa 0,0 mm 1,8 km/h (1 Bft) O-SO 247 0 min 0 W/m 2,4 C 3,4 C 1,8 km/h (1 Bft)
24/12/2011 03:25 3,3 C 93 % 1029,6 hPa 0,0 mm 0,7 km/h (0 Bft) O 270 0 min 0 W/m 2,3 C 3,3 C 3,6 km/h (1 Bft)
24/12/2011 03:30 3,3 C 93 % 1029,7 hPa 0,0 mm 2,9 km/h (1 Bft) O-NO 292 0 min 0 W/m 2,3 C 3,3 C 7,9 km/h (2 Bft)
24/12/2011 03:35 3,2 C 93 % 1029,8 hPa 0,0 mm 0,7 km/h (0 Bft) O 270 0 min 0 W/m 2,2 C 3,2 C 4,0 km/h (1 Bft)
24/12/2011 03:40 3,1 C 93 % 1029,9 hPa 0,0 mm 0,4 km/h (0 Bft) O 270 0 min 0 W/m 2,1 C 3,1 C 0,4 km/h (0 Bft)
24/12/2011 03:45 3,1 C 93 % 1030,0 hPa 0,0 mm 2,2 km/h (1 Bft) O-SO 247 0 min 0 W/m 2,1 C 3,1 C 7,9 km/h (2 Bft)
24/12/2011 03:50 3,1 C 93 % 1030,0 hPa 0,0 mm 3,6 km/h (1 Bft) O 270 0 min 0 W/m 2,1 C 3,1 C 10,4 km/h (2 Bft)
24/12/2011 03:55 3,1 C 93 % 1030,1 hPa 0,0 mm 1,1 km/h (1 Bft) O-SO 247 0 min 0 W/m 2,1 C 3,1 C 1,1 km/h (1 Bft)
24/12/2011 04:00 2,9 C 93 % 1030,2 hPa 0,0 mm 1,8 km/h (1 Bft) O-NO 292 0 min 0 W/m 1,9 C 2,9 C 7,2 km/h (2 Bft)
24/12/2011 04:05 2,9 C 93 % 1030,1 hPa 0,0 mm 1,1 km/h (1 Bft) O-NO 292 0 min 0 W/m 1,9 C 2,9 C 3,2 km/h (1 Bft)
24/12/2011 04:10 2,9 C 93 % 1030,2 hPa 0,0 mm 5,0 km/h (1 Bft) SO 225 0 min 0 W/m 1,9 C 1,7 C 7,9 km/h (2 Bft)
24/12/2011 04:15 2,9 C 93 % 1030,4 hPa 0,0 mm 2,9 km/h (1 Bft) O 270 0 min 0 W/m 1,9 C 2,9 C 3,6 km/h (1 Bft)
24/12/2011 04:20 2,9 C 93 % 1030,4 hPa 0,0 mm 2,2 km/h (1 Bft) O-SO 247 0 min 0 W/m 1,9 C 2,9 C 2,2 km/h (1 Bft)
24/12/2011 04:25 2,9 C 93 % 1030,5 hPa 0,0 mm 0,4 km/h (0 Bft) O 270 0 min 0 W/m 1,9 C 2,9 C 0,4 km/h (0 Bft)
24/12/2011 04:30 2,8 C 93 % 1030,5 hPa 0,0 mm 1,8 km/h (1 Bft) O 270 0 min 0 W/m 1,8 C 2,8 C 6,5 km/h (2 Bft)
24/12/2011 04:35 2,8 C 94 % 1030,5 hPa 0,0 mm 0,4 km/h (0 Bft) O 270 0 min 0 W/m 1,9 C 2,8 C 0,4 km/h (0 Bft)
24/12/2011 04:40 2,8 C 93 % 1030,6 hPa 0,0 mm 0,4 km/h (0 Bft) O 270 0 min 0 W/m 1,8 C 2,8 C 0,4 km/h (0 Bft)
24/12/2011 04:45 2,7 C 94 % 1030,7 hPa 0,0 mm 0,4 km/h (0 Bft) O 270 0 min 0 W/m 1,8 C 2,7 C 3,6 km/h (1 Bft)
24/12/2011 04:50 2,6 C 94 % 1030,7 hPa 0,0 mm 0,4 km/h (0 Bft) O-SO 247 0 min 0 W/m 1,7 C 2,6 C 0,4 km/h (0 Bft)
24/12/2011 04:55 2,6 C 94 % 1030,8 hPa 0,0 mm 0,0 km/h (0 Bft) O 270 0 min 0 W/m 1,7 C 2,6 C 0,0 km/h (0 Bft)
24/12/2011 05:00 2,5 C 94 % 1030,8 hPa 0,0 mm 0,0 km/h (0 Bft) O-SO 247 0 min 0 W/m 1,6 C 2,5 C 3,2 km/h (1 Bft)
24/12/2011 05:05 2,4 C 94 % 1030,9 hPa 0,0 mm 0,0 km/h (0 Bft) O 270 0 min 0 W/m 1,5 C 2,4 C 0,0 km/h (0 Bft)
24/12/2011 05:10 2,3 C 94 % 1031,0 hPa 0,0 mm 0,0 km/h (0 Bft) O 270 0 min 0 W/m 1,4 C 2,3 C 0,0 km/h (0 Bft)
24/12/2011 05:15 2,3 C 94 % 1031,0 hPa 0,0 mm 0,0 km/h (0 Bft) O 270 0 min 0 W/m 1,4 C 2,3 C 0,0 km/h (0 Bft)
24/12/2011 05:20 2,2 C 94 % 1031,1 hPa 0,0 mm 1,8 km/h (1 Bft) O-SO 247 0 min 0 W/m 1,3 C 2,2 C 9,7 km/h (2 Bft)
24/12/2011 05:25 2,2 C 94 % 1031,1 hPa 0,0 mm 0,4 km/h (0 Bft) O 270 0 min 0 W/m 1,3 C 2,2 C 0,4 km/h (0 Bft)
24/12/2011 05:30 2,1 C 94 % 1031,1 hPa 0,0 mm 0,0 km/h (0 Bft) O-SO 247 0 min 0 W/m 1,2 C 2,1 C 0,0 km/h (0 Bft)
24/12/2011 05:35 2,1 C 94 % 1031,2 hPa 0,0 mm 1,1 km/h (1 Bft) NO 315 0 min 0 W/m 1,2 C 2,1 C 4,3 km/h (1 Bft)
24/12/2011 05:40 2,1 C 94 % 1031,3 hPa 0,0 mm 0,4 km/h (0 Bft) O-NO 292 0 min 0 W/m 1,2 C 2,1 C 4,3 km/h (1 Bft)
24/12/2011 05:45 2,0 C 94 % 1031,2 hPa 0,0 mm 1,8 km/h (1 Bft) O 270 0 min 0 W/m 1,1 C 2,0 C 2,9 km/h (1 Bft)
24/12/2011 05:50 2,0 C 94 % 1031,3 hPa 0,0 mm 2,5 km/h (1 Bft) O-SO 247 0 min 0 W/m 1,1 C 2,0 C 2,9 km/h (1 Bft)
24/12/2011 05:55 2,0 C 94 % 1031,4 hPa 0,0 mm 0,4 km/h (0 Bft) O-NO 292 0 min 0 W/m 1,1 C 2,0 C 0,4 km/h (0 Bft)
24/12/2011 06:00 1,9 C 94 % 1031,3 hPa 0,0 mm 1,4 km/h (1 Bft) O-NO 292 0 min 0 W/m 1,0 C 1,9 C 4,0 km/h (1 Bft)
24/12/2011 06:05 1,9 C 94 % 1031,4 hPa 0,0 mm 0,0 km/h (0 Bft) O-SO 247 0 min 0 W/m 1,0 C 1,9 C 0,0 km/h (0 Bft)
24/12/2011 06:10 1,8 C 94 % 1031,5 hPa 0,0 mm 0,0 km/h (0 Bft) NO 315 0 min 0 W/m 0,9 C 1,8 C 0,0 km/h (0 Bft)
24/12/2011 06:15 1,8 C 94 % 1031,5 hPa 0,0 mm 0,0 km/h (0 Bft) NO 315 0 min 0 W/m 0,9 C 1,8 C 0,0 km/h (0 Bft)
24/12/2011 06:20 1,7 C 94 % 1031,6 hPa 0,0 mm 0,7 km/h (0 Bft) NO 315 0 min 0 W/m 0,8 C 1,7 C 3,6 km/h (1 Bft)
24/12/2011 06:25 1,6 C 94 % 1031,6 hPa 0,0 mm 0,0 km/h (0 Bft) NO 315 0 min 0 W/m 0,7 C 1,6 C 0,0 km/h (0 Bft)
24/12/2011 06:30 1,6 C 94 % 1031,7 hPa 0,0 mm 0,0 km/h (0 Bft) NO 315 0 min 0 W/m 0,7 C 1,6 C 0,0 km/h (0 Bft)
24/12/2011 06:35 1,5 C 94 % 1031,7 hPa 0,0 mm 0,0 km/h (0 Bft) NO 315 0 min 0 W/m 0,6 C 1,5 C 0,0 km/h (0 Bft)
24/12/2011 06:40 1,4 C 94 % 1031,8 hPa 0,0 mm 0,0 km/h (0 Bft) NO 315 0 min 0 W/m 0,5 C 1,4 C 0,0 km/h (0 Bft)
24/12/2011 06:45 1,4 C 94 % 1031,9 hPa 0,0 mm 0,0 km/h (0 Bft) NO 315 0 min 0 W/m 0,5 C 1,4 C 0,0 km/h (0 Bft)
24/12/2011 06:50 1,3 C 94 % 1031,9 hPa 0,0 mm 0,0 km/h (0 Bft) SO 225 0 min 0 W/m 0,4 C 1,3 C 0,0 km/h (0 Bft)
24/12/2011 06:55 1,3 C 94 % 1031,8 hPa 0,0 mm 1,4 km/h (1 Bft) O 270 0 min 0 W/m 0,4 C 1,3 C 4,3 km/h (1 Bft)
24/12/2011 07:00 1,3 C 94 % 1031,8 hPa 0,0 mm 0,0 km/h (0 Bft) O-SO 247 0 min 0 W/m 0,4 C 1,3 C 0,0 km/h (0 Bft)
24/12/2011 07:05 1,3 C 94 % 1032,0 hPa 0,0 mm 1,4 km/h (1 Bft) O 270 0 min 0 W/m 0,4 C 1,3 C 1,4 km/h (1 Bft)
24/12/2011 07:10 1,4 C 94 % 1032,0 hPa 0,0 mm 2,5 km/h (1 Bft) SO 225 0 min 0 W/m 0,5 C 1,4 C 3,6 km/h (1 Bft)
24/12/2011 07:15 1,4 C 94 % 1032,2 hPa 0,0 mm 0,0 km/h (0 Bft) O-SO 247 0 min 0 W/m 0,5 C 1,4 C 0,0 km/h (0 Bft)
24/12/2011 07:20 1,4 C 94 % 1032,4 hPa 0,0 mm 0,0 km/h (0 Bft) O-SO 247 0 min 0 W/m 0,5 C 1,4 C 0,0 km/h (0 Bft)
24/12/2011 07:25 1,4 C 94 % 1032,3 hPa 0,0 mm 0,0 km/h (0 Bft) O-SO 247 0 min 0 W/m 0,5 C 1,4 C 0,0 km/h (0 Bft)
24/12/2011 07:30 1,3 C 94 % 1032,3 hPa 0,0 mm 0,7 km/h (0 Bft) S-SO 202 0 min 0 W/m 0,4 C 1,3 C 4,3 km/h (1 Bft)
24/12/2011 07:35 1,3 C 94 % 1032,5 hPa 0,0 mm 0,0 km/h (0 Bft) O-SO 247 0 min 0 W/m 0,4 C 1,3 C 0,0 km/h (0 Bft)
24/12/2011 07:40 1,3 C 94 % 1032,5 hPa 0,0 mm 0,0 km/h (0 Bft) O-SO 247 0 min 0 W/m 0,4 C 1,3 C 0,0 km/h (0 Bft)
24/12/2011 07:45 1,2 C 94 % 1032,6 hPa 0,0 mm 0,0 km/h (0 Bft) O-SO 247 0 min 0 W/m 0,3 C 1,2 C 0,0 km/h (0 Bft)
24/12/2011 07:50 1,2 C 95 % 1032,6 hPa 0,0 mm 0,0 km/h (0 Bft) O-SO 247 0 min 0 W/m 0,5 C 1,2 C 0,0 km/h (0 Bft)
24/12/2011 07:55 1,1 C 95 % 1032,6 hPa 0,0 mm 0,0 km/h (0 Bft) SO 225 0 min 0 W/m 0,4 C 1,1 C 0,0 km/h (0 Bft)
24/12/2011 08:00 1,1 C 95 % 1032,6 hPa 0,0 mm 0,0 km/h (0 Bft) S-SO 202 0 min 0 W/m 0,4 C 1,1 C 0,0 km/h (0 Bft)
24/12/2011 08:05 1,1 C 95 % 1032,6 hPa 0,0 mm 0,0 km/h (0 Bft) O-SO 247 0 min 0 W/m 0,4 C 1,1 C 0,0 km/h (0 Bft)
24/12/2011 08:10 1,1 C 95 % 1032,6 hPa 0,0 mm 0,0 km/h (0 Bft) SO 225 0 min 0 W/m 0,4 C 1,1 C 0,0 km/h (0 Bft)
24/12/2011 08:15 1,0 C 95 % 1032,7 hPa 0,0 mm 0,0 km/h (0 Bft) O-SO 247 0 min 0 W/m 0,3 C 1,0 C 0,0 km/h (0 Bft)
24/12/2011 08:20 0,9 C 95 % 1032,9 hPa 0,1 mm 0,0 km/h (0 Bft) O-SO 247 0 min 0 W/m 0,2 C 0,9 C 0,0 km/h (0 Bft)
24/12/2011 08:25 0,9 C 95 % 1032,9 hPa 0,0 mm 0,0 km/h (0 Bft) O-SO 247 0 min 0 W/m 0,2 C 0,9 C 0,0 km/h (0 Bft)
24/12/2011 08:30 0,8 C 95 % 1033,0 hPa 0,0 mm 0,0 km/h (0 Bft) O-SO 247 0 min 0 W/m 0,1 C 0,8 C 0,0 km/h (0 Bft)
24/12/2011 08:35 0,8 C 95 % 1033,0 hPa 0,0 mm 0,0 km/h (0 Bft) SO 225 0 min 0 W/m 0,1 C 0,8 C 0,0 km/h (0 Bft)
24/12/2011 08:40 0,8 C 95 % 1033,2 hPa 0,0 mm 0,0 km/h (0 Bft) S 180 0 min 0 W/m 0,1 C 0,8 C 0,0 km/h (0 Bft)
24/12/2011 08:45 0,8 C 95 % 1033,2 hPa 0,0 mm 0,0 km/h (0 Bft) O-SO 247 0 min 0 W/m 0,1 C 0,8 C 0,0 km/h (0 Bft)
24/12/2011 08:50 0,8 C 95 % 1033,2 hPa 0,0 mm 0,0 km/h (0 Bft) SO 225 0 min 0 W/m 0,1 C 0,8 C 0,0 km/h (0 Bft)
24/12/2011 08:55 0,8 C 95 % 1033,4 hPa 0,0 mm 0,0 km/h (0 Bft) SO 225 0 min 0 W/m 0,1 C 0,8 C 0,0 km/h (0 Bft)
24/12/2011 09:00 0,8 C 95 % 1033,4 hPa 0,0 mm 1,8 km/h (1 Bft) O 270 0 min 0 W/m 0,1 C 0,8 C 7,9 km/h (2 Bft)
24/12/2011 09:05 0,8 C 95 % 1033,5 hPa 0,0 mm 0,0 km/h (0 Bft) O 270 0 min 0 W/m 0,1 C 0,8 C 0,0 km/h (0 Bft)
24/12/2011 09:10 0,8 C 95 % 1033,5 hPa 0,0 mm 0,0 km/h (0 Bft) O 270 0 min 0 W/m 0,1 C 0,8 C 0,0 km/h (0 Bft)
24/12/2011 09:15 0,8 C 95 % 1033,5 hPa 0,0 mm 0,0 km/h (0 Bft) O 270 0 min 0 W/m 0,1 C 0,8 C 0,0 km/h (0 Bft)
24/12/2011 09:20 0,8 C 95 % 1033,6 hPa 0,0 mm 0,4 km/h (0 Bft) O-NO 292 0 min 0 W/m 0,1 C 0,8 C 0,4 km/h (0 Bft)
24/12/2011 09:25 1,1 C 95 % 1033,7 hPa 0,0 mm 0,0 km/h (0 Bft) O 270 0 min 0 W/m 0,4 C 1,1 C 0,0 km/h (0 Bft)
24/12/2011 09:30 1,4 C 95 % 1033,7 hPa 0,0 mm 0,0 km/h (0 Bft) O-SO 247 0 min 0 W/m 0,7 C 1,4 C 0,0 km/h (0 Bft)
24/12/2011 09:35 1,7 C 95 % 1033,8 hPa 0,0 mm 1,1 km/h (1 Bft) O-NO 292 0 min 0 W/m 1,0 C 1,7 C 4,0 km/h (1 Bft)
24/12/2011 09:40 2,0 C 95 % 1033,8 hPa 0,0 mm 0,0 km/h (0 Bft) O 270 0 min 0 W/m 1,3 C 2,0 C 0,0 km/h (0 Bft)
24/12/2011 09:45 2,4 C 96 % 1033,9 hPa 0,0 mm 1,1 km/h (1 Bft) O-SO 247 0 min 0 W/m 1,8 C 2,4 C 4,0 km/h (1 Bft)
24/12/2011 09:50 2,6 C 96 % 1034,0 hPa 0,0 mm 0,0 km/h (0 Bft) O 270 0 min 0 W/m 2,0 C 2,6 C 0,0 km/h (0 Bft)
24/12/2011 09:55 2,9 C 96 % 1034,1 hPa 0,0 mm 0,4 km/h (0 Bft) N-NO 337 0 min 0 W/m 2,3 C 2,9 C 1,4 km/h (1 Bft)
24/12/2011 10:00 3,2 C 96 % 1034,2 hPa 0,0 mm 3,2 km/h (1 Bft) O-NO 292 0 min 0 W/m 2,6 C 3,2 C 9,0 km/h (2 Bft)
24/12/2011 10:05 3,5 C 96 % 1034,3 hPa 0,0 mm 0,0 km/h (0 Bft) NO 315 0 min 0 W/m 2,9 C 3,5 C 0,0 km/h (0 Bft)
24/12/2011 10:10 3,8 C 95 % 1034,4 hPa 0,0 mm 0,0 km/h (0 Bft) O-NO 292 0 min 0 W/m 3,1 C 3,8 C 0,0 km/h (0 Bft)
24/12/2011 10:15 4,1 C 96 % 1034,4 hPa 0,0 mm 1,1 km/h (1 Bft) NO 315 0 min 0 W/m 3,5 C 4,1 C 3,2 km/h (1 Bft)
24/12/2011 10:20 4,4 C 95 % 1034,6 hPa 0,0 mm 0,4 km/h (0 Bft) NO 315 0 min 0 W/m 3,7 C 4,4 C 3,6 km/h (1 Bft)
24/12/2011 10:25 4,6 C 95 % 1034,6 hPa 0,0 mm 1,4 km/h (1 Bft) N-NO 337 0 min 0 W/m 3,9 C 4,6 C 4,3 km/h (1 Bft)
24/12/2011 10:30 4,9 C 94 % 1034,7 hPa 0,0 mm 8,6 km/h (2 Bft) NO 315 0 min 0 W/m 4,0 C 2,9 C 11,5 km/h (2 Bft)
24/12/2011 10:35 5,3 C 94 % 1034,9 hPa 0,0 mm 2,5 km/h (1 Bft) N-NO 337 0 min 0 W/m 4,4 C 5,3 C 4,3 km/h (1 Bft)
24/12/2011 10:40 5,6 C 93 % 1034,8 hPa 0,0 mm 2,5 km/h (1 Bft) NO 315 0 min 0 W/m 4,6 C 5,6 C 2,5 km/h (1 Bft)
24/12/2011 10:45 5,8 C 93 % 1034,9 hPa 0,0 mm 1,1 km/h (1 Bft) NO 315 0 min 0 W/m 4,8 C 5,8 C 3,2 km/h (1 Bft)
24/12/2011 10:50 6,2 C 92 % 1034,9 hPa 0,0 mm 9,0 km/h (2 Bft) NO 315 0 min 0 W/m 5,0 C 4,3 C 12,2 km/h (2 Bft)
24/12/2011 10:55 6,4 C 91 % 1035,1 hPa 0,0 mm 0,7 km/h (0 Bft) NO 315 0 min 0 W/m 5,0 C 6,4 C 4,3 km/h (1 Bft)
24/12/2011 11:00 6,6 C 90 % 1035,1 hPa 0,0 mm 0,7 km/h (0 Bft) O-NO 292 0 min 0 W/m 5,1 C 6,6 C 1,8 km/h (1 Bft)
24/12/2011 11:05 6,8 C 89 % 1035,3 hPa 0,0 mm 9,7 km/h (2 Bft) N-NO 337 0 min 0 W/m 5,1 C 4,9 C 11,2 km/h (2 Bft)
24/12/2011 11:10 6,9 C 89 % 1035,2 hPa 0,0 mm 2,5 km/h (1 Bft) NO 315 0 min 0 W/m 5,2 C 6,9 C 10,8 km/h (2 Bft)
24/12/2011 11:15 7,1 C 89 % 1035,2 hPa 0,0 mm 0,0 km/h (0 Bft) N-NO 337 0 min 0 W/m 5,4 C 7,1 C 0,0 km/h (0 Bft)
24/12/2011 11:20 7,3 C 89 % 1035,2 hPa 0,0 mm 3,6 km/h (1 Bft) NO 315 0 min 0 W/m 5,6 C 7,3 C 9,0 km/h (2 Bft)
24/12/2011 11:25 7,4 C 89 % 1035,2 hPa 0,0 mm 3,2 km/h (1 Bft) NO 315 0 min 0 W/m 5,7 C 7,4 C 7,6 km/h (2 Bft)
24/12/2011 11:30 7,7 C 88 % 1035,1 hPa 0,0 mm 0,0 km/h (0 Bft) N-NE 22 0 min 0 W/m 5,8 C 7,7 C 1,4 km/h (1 Bft)
24/12/2011 11:35 7,8 C 87 % 1035,2 hPa 0,0 mm 1,1 km/h (1 Bft) N 360 0 min 0 W/m 5,8 C 7,8 C 4,0 km/h (1 Bft)
24/12/2011 11:40 8,1 C 87 % 1035,3 hPa 0,0 mm 2,9 km/h (1 Bft) O-NO 292 0 min 0 W/m 6,1 C 8,1 C 6,8 km/h (2 Bft)
24/12/2011 11:45 8,3 C 86 % 1035,2 hPa 0,0 mm 7,6 km/h (2 Bft) N-NO 337 0 min 0 W/m 6,1 C 7,1 C 11,5 km/h (2 Bft)
24/12/2011 11:50 8,5 C 86 % 1035,3 hPa 0,0 mm 5,0 km/h (1 Bft) NO 315 0 min 0 W/m 6,3 C 8,1 C 7,2 km/h (2 Bft)
24/12/2011 11:55 8,8 C 85 % 1035,3 hPa 0,0 mm 2,9 km/h (1 Bft) N-NO 337 0 min 0 W/m 6,4 C 8,8 C 3,6 km/h (1 Bft)
24/12/2011 12:00 8,9 C 84 % 1035,2 hPa 0,0 mm 2,2 km/h (1 Bft) N-NO 337 0 min 0 W/m 6,3 C 8,9 C 4,0 km/h (1 Bft)
24/12/2011 12:05 9,1 C 84 % 1035,1 hPa 0,0 mm 0,4 km/h (0 Bft) N-NO 337 0 min 0 W/m 6,5 C 9,1 C 3,2 km/h (1 Bft)
24/12/2011 12:10 9,3 C 82 % 1035,1 hPa 0,0 mm 5,0 km/h (1 Bft) NO 315 0 min 0 W/m 6,4 C 9,0 C 9,7 km/h (2 Bft)
24/12/2011 12:15 9,4 C 82 % 1035,1 hPa 0,0 mm 0,0 km/h (0 Bft) NO 315 0 min 0 W/m 6,5 C 9,4 C 0,0 km/h (0 Bft)
24/12/2011 12:20 9,7 C 81 % 1035,2 hPa 0,0 mm 0,0 km/h (0 Bft) N-NO 337 0 min 0 W/m 6,6 C 9,7 C 4,0 km/h (1 Bft)
24/12/2011 12:25 9,8 C 80 % 1035,1 hPa 0,0 mm 4,0 km/h (1 Bft) NO 315 0 min 0 W/m 6,5 C 9,8 C 8,6 km/h (2 Bft)
24/12/2011 12:30 9,8 C 80 % 1035,1 hPa 0,0 mm 0,0 km/h (0 Bft) N-NO 337 0 min 0 W/m 6,5 C 9,8 C 4,0 km/h (1 Bft)
24/12/2011 12:35 10,0 C 79 % 1035,2 hPa 0,0 mm 2,9 km/h (1 Bft) N 360 0 min 0 W/m 6,5 C 10,0 C 6,5 km/h (2 Bft)
24/12/2011 12:40 10,0 C 78 % 1035,2 hPa 0,0 mm 4,3 km/h (1 Bft) N-NE 22 0 min 0 W/m 6,3 C 10,0 C 8,3 km/h (2 Bft)
24/12/2011 12:45 10,0 C 77 % 1035,2 hPa 0,0 mm 2,9 km/h (1 Bft) N-NE 22 0 min 0 W/m 6,2 C 10,0 C 4,3 km/h (1 Bft)
24/12/2011 12:50 10,0 C 77 % 1035,1 hPa 0,0 mm 6,5 km/h (2 Bft) N 360 0 min 0 W/m 6,2 C 9,3 C 6,5 km/h (2 Bft)
24/12/2011 12:55 10,0 C 76 % 1035,2 hPa 0,0 mm 1,8 km/h (1 Bft) N-NO 337 0 min 0 W/m 6,0 C 10,0 C 3,6 km/h (1 Bft)
24/12/2011 13:00 10,0 C 75 % 1035,1 hPa 0,0 mm 4,0 km/h (1 Bft) N-NE 22 0 min 0 W/m 5,8 C 10,0 C 4,3 km/h (1 Bft)
24/12/2011 13:05 10,0 C 75 % 1035,2 hPa 0,0 mm 3,6 km/h (1 Bft) N-NE 22 0 min 0 W/m 5,8 C 10,0 C 6,1 km/h (2 Bft)
24/12/2011 13:10 9,9 C 74 % 1035,2 hPa 0,0 mm 3,6 km/h (1 Bft) NE 45 0 min 0 W/m 5,5 C 9,9 C 6,5 km/h (2 Bft)
24/12/2011 13:15 9,8 C 73 % 1035,3 hPa 0,0 mm 5,8 km/h (2 Bft) N-NE 22 0 min 0 W/m 5,2 C 9,3 C 11,2 km/h (2 Bft)
24/12/2011 13:20 9,4 C 73 % 1035,1 hPa 0,0 mm 4,7 km/h (1 Bft) N-NE 22 0 min 0 W/m 4,8 C 9,2 C 9,0 km/h (2 Bft)
24/12/2011 13:25 9,4 C 74 % 1035,0 hPa 0,0 mm 4,7 km/h (1 Bft) N-NE 22 0 min 0 W/m 5,0 C 9,2 C 4,7 km/h (1 Bft)
24/12/2011 13:30 9,4 C 73 % 1034,9 hPa 0,0 mm 0,0 km/h (0 Bft) N 360 0 min 0 W/m 4,8 C 9,4 C 0,0 km/h (0 Bft)
24/12/2011 13:35 9,4 C 73 % 1034,9 hPa 0,0 mm 0,0 km/h (0 Bft) N 360 0 min 0 W/m 4,8 C 9,4 C 0,0 km/h (0 Bft)
24/12/2011 13:40 9,5 C 74 % 1034,9 hPa 0,0 mm 1,8 km/h (1 Bft) NE 45 0 min 0 W/m 5,1 C 9,5 C 1,8 km/h (1 Bft)
24/12/2011 13:45 9,6 C 73 % 1035,0 hPa 0,0 mm 2,5 km/h (1 Bft) N-NE 22 0 min 0 W/m 5,0 C 9,6 C 3,2 km/h (1 Bft)
24/12/2011 13:50 9,8 C 73 % 1035,1 hPa 0,0 mm 0,4 km/h (0 Bft) N 360 0 min 0 W/m 5,2 C 9,8 C 0,4 km/h (0 Bft)
24/12/2011 13:55 9,8 C 72 % 1035,3 hPa 0,0 mm 5,0 km/h (1 Bft) O 270 0 min 0 W/m 5,0 C 9,5 C 10,8 km/h (2 Bft)
24/12/2011 14:00 9,8 C 72 % 1035,2 hPa 0,0 mm 2,5 km/h (1 Bft) N-NO 337 0 min 0 W/m 5,0 C 9,8 C 7,2 km/h (2 Bft)
24/12/2011 14:05 10,0 C 72 % 1035,2 hPa 0,0 mm 4,0 km/h (1 Bft) NE 45 0 min 0 W/m 5,2 C 10,0 C 9,7 km/h (2 Bft)
24/12/2011 14:10 9,9 C 72 % 1035,1 hPa 0,0 mm 0,0 km/h (0 Bft) E 90 0 min 0 W/m 5,1 C 9,9 C 3,6 km/h (1 Bft)
24/12/2011 14:15 9,8 C 71 % 1034,9 hPa 0,0 mm 5,0 km/h (1 Bft) N 360 0 min 0 W/m 4,8 C 9,5 C 9,4 km/h (2 Bft)
24/12/2011 14:20 9,7 C 71 % 1034,8 hPa 0,0 mm 4,0 km/h (1 Bft) N-NE 22 0 min 0 W/m 4,7 C 9,7 C 7,6 km/h (2 Bft)
24/12/2011 14:25 9,5 C 71 % 1034,4 hPa 0,0 mm 5,0 km/h (1 Bft) NO 315 0 min 0 W/m 4,5 C 9,2 C 10,1 km/h (2 Bft)
24/12/2011 14:30 9,1 C 71 % 1034,4 hPa 0,0 mm 6,8 km/h (2 Bft) N-NO 337 0 min 0 W/m 4,1 C 8,2 C 10,4 km/h (2 Bft)
24/12/2011 14:35 8,9 C 72 % 1034,2 hPa 0,0 mm 0,0 km/h (0 Bft) N-NO 337 0 min 0 W/m 4,1 C 8,9 C 3,2 km/h (1 Bft)
24/12/2011 14:40 8,9 C 72 % 1034,1 hPa 0,0 mm 3,6 km/h (1 Bft) NO 315 0 min 0 W/m 4,1 C 8,9 C 7,2 km/h (2 Bft)
24/12/2011 14:45 8,9 C 72 % 1034,1 hPa 0,0 mm 4,3 km/h (1 Bft) NO 315 0 min 0 W/m 4,1 C 8,9 C 7,2 km/h (2 Bft)
24/12/2011 14:50 8,9 C 72 % 1034,0 hPa 0,0 mm 2,5 km/h (1 Bft) O-NO 292 0 min 0 W/m 4,1 C 8,9 C 7,6 km/h (2 Bft)
24/12/2011 14:55 8,8 C 72 % 1034,0 hPa 0,0 mm 4,3 km/h (1 Bft) NO 315 0 min 0 W/m 4,0 C 8,8 C 6,8 km/h (2 Bft)
24/12/2011 15:00 8,4 C 73 % 1034,0 hPa 0,0 mm 1,8 km/h (1 Bft) O-NO 292 0 min 0 W/m 3,8 C 8,4 C 6,1 km/h (2 Bft)
24/12/2011 15:05 8,1 C 73 % 1034,0 hPa 0,0 mm 5,0 km/h (1 Bft) NO 315 0 min 0 W/m 3,6 C 7,6 C 8,6 km/h (2 Bft)
24/12/2011 15:10 7,8 C 74 % 1034,1 hPa 0,0 mm 1,8 km/h (1 Bft) NO 315 0 min 0 W/m 3,5 C 7,8 C 4,0 km/h (1 Bft)
24/12/2011 15:15 7,5 C 74 % 1034,1 hPa 0,0 mm 0,0 km/h (0 Bft) NO 315 0 min 0 W/m 3,2 C 7,5 C 4,0 km/h (1 Bft)
24/12/2011 15:20 7,3 C 75 % 1034,1 hPa 0,0 mm 0,7 km/h (0 Bft) NO 315 0 min 0 W/m 3,2 C 7,3 C 3,2 km/h (1 Bft)
24/12/2011 15:25 7,1 C 75 % 1034,1 hPa 0,0 mm 2,9 km/h (1 Bft) N-NO 337 0 min 0 W/m 3,0 C 7,1 C 6,8 km/h (2 Bft)
24/12/2011 15:30 6,9 C 76 % 1034,2 hPa 0,0 mm 4,0 km/h (1 Bft) NO 315 0 min 0 W/m 3,0 C 6,9 C 9,0 km/h (2 Bft)
24/12/2011 15:35 6,9 C 76 % 1034,3 hPa 0,0 mm 1,4 km/h (1 Bft) NO 315 0 min 0 W/m 3,0 C 6,9 C 4,0 km/h (1 Bft)
24/12/2011 15:40 6,9 C 76 % 1034,1 hPa 0,0 mm 9,7 km/h (2 Bft) NO 315 0 min 0 W/m 3,0 C 5,0 C 13,7 km/h (3 Bft)
24/12/2011 15:45 6,9 C 76 % 1034,2 hPa 0,0 mm 2,9 km/h (1 Bft) NO 315 0 min 0 W/m 3,0 C 6,9 C 4,3 km/h (1 Bft)
24/12/2011 15:50 7,0 C 75 % 1034,1 hPa 0,0 mm 8,3 km/h (2 Bft) NO 315 0 min 0 W/m 2,9 C 5,4 C 13,0 km/h (3 Bft)
24/12/2011 15:55 7,1 C 75 % 1034,1 hPa 0,0 mm 6,8 km/h (2 Bft) N-NO 337 0 min 0 W/m 3,0 C 5,9 C 9,7 km/h (2 Bft)
24/12/2011 16:00 7,1 C 75 % 1034,0 hPa 0,0 mm 6,5 km/h (2 Bft) NO 315 0 min 0 W/m 3,0 C 6,0 C 9,4 km/h (2 Bft)
24/12/2011 16:05 7,2 C 75 % 1034,1 hPa 0,0 mm 1,4 km/h (1 Bft) NO 315 0 min 0 W/m 3,1 C 7,2 C 7,9 km/h (2 Bft)
24/12/2011 16:10 7,3 C 75 % 1034,1 hPa 0,0 mm 0,4 km/h (0 Bft) NO 315 0 min 0 W/m 3,2 C 7,3 C 3,6 km/h (1 Bft)
24/12/2011 16:15 7,3 C 75 % 1034,2 hPa 0,0 mm 5,4 km/h (2 Bft) NO 315 0 min 0 W/m 3,2 C 6,6 C 7,2 km/h (2 Bft)
24/12/2011 16:20 7,3 C 75 % 1034,1 hPa 0,0 mm 2,2 km/h (1 Bft) NO 315 0 min 0 W/m 3,2 C 7,3 C 5,8 km/h (2 Bft)
24/12/2011 16:25 7,3 C 74 % 1034,2 hPa 0,0 mm 2,2 km/h (1 Bft) NO 315 0 min 0 W/m 3,0 C 7,3 C 2,2 km/h (1 Bft)
24/12/2011 16:30 7,2 C 74 % 1034,2 hPa 0,0 mm 4,7 km/h (1 Bft) O-NO 292 0 min 0 W/m 2,9 C 6,7 C 7,2 km/h (2 Bft)
24/12/2011 16:35 7,1 C 74 % 1034,1 hPa 0,0 mm 4,3 km/h (1 Bft) NO 315 0 min 0 W/m 2,8 C 7,1 C 7,2 km/h (2 Bft)
24/12/2011 16:40 6,9 C 74 % 1034,1 hPa 0,0 mm 0,7 km/h (0 Bft) NO 315 0 min 0 W/m 2,6 C 6,9 C 3,6 km/h (1 Bft)
24/12/2011 16:45 6,8 C 75 % 1034,2 hPa 0,0 mm 2,2 km/h (1 Bft) NO 315 0 min 0 W/m 2,7 C 6,8 C 2,9 km/h (1 Bft)
24/12/2011 16:50 6,6 C 75 % 1034,1 hPa 0,0 mm 0,4 km/h (0 Bft) NO 315 0 min 0 W/m 2,5 C 6,6 C 0,4 km/h (0 Bft)
24/12/2011 16:55 6,5 C 75 % 1034,1 hPa 0,0 mm 1,1 km/h (1 Bft) NO 315 0 min 0 W/m 2,4 C 6,5 C 1,1 km/h (1 Bft)
24/12/2011 17:00 6,3 C 75 % 1034,0 hPa 0,0 mm 0,0 km/h (0 Bft) NO 315 0 min 0 W/m 2,2 C 6,3 C 0,0 km/h (0 Bft)
24/12/2011 17:05 6,0 C 76 % 1034,0 hPa 0,0 mm 1,8 km/h (1 Bft) NO 315 0 min 0 W/m 2,1 C 6,0 C 4,0 km/h (1 Bft)
24/12/2011 17:10 5,8 C 76 % 1034,1 hPa 0,0 mm 0,0 km/h (0 Bft) NO 315 0 min 0 W/m 1,9 C 5,8 C 0,0 km/h (0 Bft)
24/12/2011 17:15 5,4 C 76 % 1034,1 hPa 0,0 mm 0,0 km/h (0 Bft) NO 315 0 min 0 W/m 1,5 C 5,4 C 0,0 km/h (0 Bft)
24/12/2011 17:20 5,2 C 77 % 1034,2 hPa 0,0 mm 0,0 km/h (0 Bft) NO 315 0 min 0 W/m 1,5 C 5,2 C 0,0 km/h (0 Bft)
24/12/2011 17:25 4,9 C 77 % 1034,1 hPa 0,0 mm 0,0 km/h (0 Bft) NO 315 0 min 0 W/m 1,2 C 4,9 C 0,0 km/h (0 Bft)
24/12/2011 17:30 4,6 C 78 % 1034,2 hPa 0,0 mm 0,0 km/h (0 Bft) NO 315 0 min 0 W/m 1,1 C 4,6 C 0,0 km/h (0 Bft)
24/12/2011 17:35 4,3 C 78 % 1034,2 hPa 0,0 mm 0,0 km/h (0 Bft) NO 315 0 min 0 W/m 0,8 C 4,3 C 0,0 km/h (0 Bft)
24/12/2011 17:40 4,1 C 79 % 1034,2 hPa 0,0 mm 0,0 km/h (0 Bft) NO 315 0 min 0 W/m 0,8 C 4,1 C 0,0 km/h (0 Bft)
24/12/2011 17:45 3,8 C 79 % 1034,3 hPa 0,0 mm 0,0 km/h (0 Bft) NO 315 0 min 0 W/m 0,5 C 3,8 C 0,0 km/h (0 Bft)
24/12/2011 17:50 3,5 C 80 % 1034,3 hPa 0,0 mm 0,0 km/h (0 Bft) NO 315 0 min 0 W/m 0,4 C 3,5 C 0,0 km/h (0 Bft)
24/12/2011 17:55 3,4 C 81 % 1034,4 hPa 0,0 mm 0,0 km/h (0 Bft) NO 315 0 min 0 W/m 0,5 C 3,4 C 0,0 km/h (0 Bft)
24/12/2011 18:00 3,2 C 81 % 1034,3 hPa 0,0 mm 0,0 km/h (0 Bft) NO 315 0 min 0 W/m 0,3 C 3,2 C 0,0 km/h (0 Bft)
24/12/2011 18:05 2,9 C 81 % 1034,4 hPa 0,0 mm 0,0 km/h (0 Bft) NO 315 0 min 0 W/m -0,0 C 2,9 C 0,0 km/h (0 Bft)
24/12/2011 18:10 2,6 C 81 % 1034,4 hPa 0,0 mm 0,0 km/h (0 Bft) NO 315 0 min 0 W/m -0,3 C 2,6 C 0,0 km/h (0 Bft)
24/12/2011 18:15 2,5 C 81 % 1034,5 hPa 0,0 mm 0,0 km/h (0 Bft) NO 315 0 min 0 W/m -0,4 C 2,5 C 0,0 km/h (0 Bft)
24/12/2011 18:20 2,3 C 81 % 1034,5 hPa 0,0 mm 0,0 km/h (0 Bft) NO 315 0 min 0 W/m -0,6 C 2,3 C 0,0 km/h (0 Bft)
24/12/2011 18:25 2,1 C 82 % 1034,6 hPa 0,0 mm 0,0 km/h (0 Bft) NO 315 0 min 0 W/m -0,6 C 2,1 C 0,0 km/h (0 Bft)
24/12/2011 18:30 1,9 C 83 % 1034,6 hPa 0,0 mm 0,0 km/h (0 Bft) NO 315 0 min 0 W/m -0,7 C 1,9 C 0,0 km/h (0 Bft)
24/12/2011 18:35 1,8 C 83 % 1034,5 hPa 0,0 mm 0,0 km/h (0 Bft) NO 315 0 min 0 W/m -0,8 C 1,8 C 0,0 km/h (0 Bft)
24/12/2011 18:40 1,7 C 84 % 1034,5 hPa 0,0 mm 0,0 km/h (0 Bft) NO 315 0 min 0 W/m -0,7 C 1,7 C 0,0 km/h (0 Bft)
24/12/2011 18:45 1,5 C 84 % 1034,6 hPa 0,0 mm 0,0 km/h (0 Bft) NO 315 0 min 0 W/m -0,9 C 1,5 C 0,0 km/h (0 Bft)
24/12/2011 18:50 1,4 C 85 % 1034,6 hPa 0,0 mm 0,0 km/h (0 Bft) NO 315 0 min 0 W/m -0,8 C 1,4 C 0,0 km/h (0 Bft)
24/12/2011 18:55 1,4 C 85 % 1034,6 hPa 0,0 mm 0,0 km/h (0 Bft) N 360 0 min 0 W/m -0,8 C 1,4 C 0,0 km/h (0 Bft)
24/12/2011 19:00 1,3 C 86 % 1034,6 hPa 0,0 mm 0,0 km/h (0 Bft) NO 315 0 min 0 W/m -0,8 C 1,3 C 0,0 km/h (0 Bft)
24/12/2011 19:05 1,3 C 86 % 1034,6 hPa 0,0 mm 0,0 km/h (0 Bft) NO 315 0 min 0 W/m -0,8 C 1,3 C 0,0 km/h (0 Bft)
24/12/2011 19:10 1,2 C 87 % 1034,5 hPa 0,0 mm 0,0 km/h (0 Bft) NO 315 0 min 0 W/m -0,7 C 1,2 C 0,0 km/h (0 Bft)
24/12/2011 19:15 1,1 C 87 % 1034,5 hPa 0,0 mm 0,0 km/h (0 Bft) NO 315 0 min 0 W/m -0,8 C 1,1 C 0,0 km/h (0 Bft)
24/12/2011 19:20 1,1 C 87 % 1034,5 hPa 0,0 mm 0,0 km/h (0 Bft) NO 315 0 min 0 W/m -0,8 C 1,1 C 0,0 km/h (0 Bft)
24/12/2011 19:25 0,9 C 87 % 1034,6 hPa 0,0 mm 0,0 km/h (0 Bft) NO 315 0 min 0 W/m -1,0 C 0,9 C 0,0 km/h (0 Bft)
24/12/2011 19:30 0,8 C 87 % 1034,6 hPa 0,0 mm 0,0 km/h (0 Bft) NO 315 0 min 0 W/m -1,1 C 0,8 C 0,0 km/h (0 Bft)
24/12/2011 19:35 0,8 C 87 % 1034,6 hPa 0,0 mm 0,0 km/h (0 Bft) NO 315 0 min 0 W/m -1,1 C 0,8 C 0,0 km/h (0 Bft)
24/12/2011 19:40 0,8 C 88 % 1034,7 hPa 0,0 mm 0,0 km/h (0 Bft) NO 315 0 min 0 W/m -1,0 C 0,8 C 0,0 km/h (0 Bft)
24/12/2011 19:45 0,9 C 88 % 1034,7 hPa 0,0 mm 0,0 km/h (0 Bft) NO 315 0 min 0 W/m -0,9 C 0,9 C 0,0 km/h (0 Bft)
24/12/2011 19:50 0,8 C 88 % 1034,7 hPa 0,0 mm 0,0 km/h (0 Bft) NO 315 0 min 0 W/m -1,0 C 0,8 C 0,0 km/h (0 Bft)
24/12/2011 19:55 0,6 C 88 % 1034,8 hPa 0,0 mm 0,0 km/h (0 Bft) NO 315 0 min 0 W/m -1,2 C 0,6 C 0,0 km/h (0 Bft)
24/12/2011 20:00 0,6 C 88 % 1034,9 hPa 0,0 mm 0,0 km/h (0 Bft) NO 315 0 min 0 W/m -1,2 C 0,6 C 0,0 km/h (0 Bft)
24/12/2011 20:05 0,6 C 88 % 1034,9 hPa 0,0 mm 0,0 km/h (0 Bft) NO 315 0 min 0 W/m -1,2 C 0,6 C 0,0 km/h (0 Bft)
24/12/2011 20:10 0,5 C 89 % 1034,9 hPa 0,0 mm 0,0 km/h (0 Bft) NO 315 0 min 0 W/m -1,1 C 0,5 C 0,0 km/h (0 Bft)
24/12/2011 20:15 0,5 C 89 % 1034,9 hPa 0,0 mm 0,0 km/h (0 Bft) NE 45 0 min 0 W/m -1,1 C 0,5 C 0,0 km/h (0 Bft)
24/12/2011 20:20 0,4 C 89 % 1035,0 hPa 0,0 mm 0,0 km/h (0 Bft) NE 45 0 min 0 W/m -1,2 C 0,4 C 0,0 km/h (0 Bft)
24/12/2011 20:25 0,3 C 89 % 1035,1 hPa 0,0 mm 0,0 km/h (0 Bft) NE 45 0 min 0 W/m -1,3 C 0,3 C 0,0 km/h (0 Bft)
24/12/2011 20:30 0,2 C 89 % 1035,2 hPa 0,0 mm 0,0 km/h (0 Bft) NE 45 0 min 0 W/m -1,4 C 0,2 C 0,0 km/h (0 Bft)
24/12/2011 20:35 0,2 C 89 % 1035,2 hPa 0,0 mm 0,0 km/h (0 Bft) NE 45 0 min 0 W/m -1,4 C 0,2 C 0,0 km/h (0 Bft)
24/12/2011 20:40 0,1 C 89 % 1035,1 hPa 0,0 mm 0,0 km/h (0 Bft) N-NE 22 0 min 0 W/m -1,5 C 0,1 C 0,0 km/h (0 Bft)
24/12/2011 20:45 0,1 C 89 % 1035,0 hPa 0,0 mm 0,0 km/h (0 Bft) NE 45 0 min 0 W/m -1,5 C 0,1 C 0,0 km/h (0 Bft)
24/12/2011 20:50 -0,1 C 89 % 1035,1 hPa 0,0 mm 0,0 km/h (0 Bft) N-NE 22 0 min 0 W/m -1,7 C -0,1 C 0,0 km/h (0 Bft)
24/12/2011 20:55 -0,1 C 89 % 1035,0 hPa 0,0 mm 0,0 km/h (0 Bft) N-NE 22 0 min 0 W/m -1,7 C -0,1 C 0,0 km/h (0 Bft)
24/12/2011 21:00 -0,2 C 90 % 1035,0 hPa 0,0 mm 0,0 km/h (0 Bft) N-NE 22 0 min 0 W/m -1,6 C -0,2 C 0,0 km/h (0 Bft)
24/12/2011 21:05 -0,2 C 90 % 1035,1 hPa 0,0 mm 0,0 km/h (0 Bft) N-NE 22 0 min 0 W/m -1,6 C -0,2 C 0,0 km/h (0 Bft)
24/12/2011 21:10 -0,3 C 90 % 1035,0 hPa 0,0 mm 0,0 km/h (0 Bft) N-NE 22 0 min 0 W/m -1,7 C -0,3 C 0,0 km/h (0 Bft)
24/12/2011 21:15 -0,4 C 90 % 1035,0 hPa 0,0 mm 0,0 km/h (0 Bft) N-NE 22 0 min 0 W/m -1,8 C -0,4 C 0,0 km/h (0 Bft)
24/12/2011 21:20 -0,4 C 90 % 1035,0 hPa 0,0 mm 0,0 km/h (0 Bft) N-NE 22 0 min 0 W/m -1,8 C -0,4 C 0,0 km/h (0 Bft)
24/12/2011 21:25 -0,5 C 90 % 1034,9 hPa 0,0 mm 0,0 km/h (0 Bft) N-NE 22 0 min 0 W/m -1,9 C -0,5 C 0,0 km/h (0 Bft)
24/12/2011 21:30 -0,6 C 90 % 1034,8 hPa 0,0 mm 0,0 km/h (0 Bft) N-NE 22 0 min 0 W/m -2,0 C -0,6 C 0,0 km/h (0 Bft)
24/12/2011 21:35 -0,6 C 90 % 1035,0 hPa 0,0 mm 0,0 km/h (0 Bft) N-NE 22 0 min 0 W/m -2,0 C -0,6 C 0,0 km/h (0 Bft)
24/12/2011 21:40 -0,6 C 90 % 1034,8 hPa 0,0 mm 0,0 km/h (0 Bft) N-NE 22 0 min 0 W/m -2,0 C -0,6 C 0,0 km/h (0 Bft)
24/12/2011 21:45 -0,5 C 90 % 1034,8 hPa 0,0 mm 0,0 km/h (0 Bft) E 90 0 min 0 W/m -1,9 C -0,5 C 0,0 km/h (0 Bft)
24/12/2011 21:50 -0,4 C 90 % 1034,8 hPa 0,0 mm 0,0 km/h (0 Bft) E 90 0 min 0 W/m -1,8 C -0,4 C 0,0 km/h (0 Bft)
24/12/2011 21:55 -0,4 C 90 % 1034,8 hPa 0,0 mm 0,0 km/h (0 Bft) E 90 0 min 0 W/m -1,8 C -0,4 C 0,0 km/h (0 Bft)
24/12/2011 22:00 -0,4 C 90 % 1034,8 hPa 0,0 mm 0,0 km/h (0 Bft) E 90 0 min 0 W/m -1,8 C -0,4 C 0,0 km/h (0 Bft)
24/12/2011 22:05 -0,4 C 91 % 1034,8 hPa 0,0 mm 0,0 km/h (0 Bft) SO 225 0 min 0 W/m -1,7 C -0,4 C 0,0 km/h (0 Bft)
24/12/2011 22:10 -0,4 C 91 % 1034,8 hPa 0,0 mm 1,1 km/h (1 Bft) E-NE 67 0 min 0 W/m -1,7 C -0,4 C 3,6 km/h (1 Bft)
24/12/2011 22:15 -0,5 C 91 % 1034,8 hPa 0,0 mm 0,0 km/h (0 Bft) NE 45 0 min 0 W/m -1,8 C -0,5 C 0,0 km/h (0 Bft)
24/12/2011 22:20 -0,6 C 91 % 1034,8 hPa 0,0 mm 0,0 km/h (0 Bft) NE 45 0 min 0 W/m -1,9 C -0,6 C 0,0 km/h (0 Bft)
24/12/2011 22:25 -0,7 C 91 % 1034,8 hPa 0,0 mm 0,0 km/h (0 Bft) NE 45 0 min 0 W/m -2,0 C -0,7 C 0,0 km/h (0 Bft)
24/12/2011 22:30 -0,7 C 91 % 1034,6 hPa 0,0 mm 0,0 km/h (0 Bft) SE 135 0 min 0 W/m -2,0 C -0,7 C 0,0 km/h (0 Bft)
24/12/2011 22:35 -0,7 C 91 % 1034,7 hPa 0,0 mm 0,0 km/h (0 Bft) SE 135 0 min 0 W/m -2,0 C -0,7 C 0,0 km/h (0 Bft)
24/12/2011 22:40 -0,8 C 91 % 1034,6 hPa 0,0 mm 0,0 km/h (0 Bft) SE 135 0 min 0 W/m -2,1 C -0,8 C 0,0 km/h (0 Bft)
24/12/2011 22:45 -0,8 C 91 % 1034,6 hPa 0,0 mm 0,0 km/h (0 Bft) SE 135 0 min 0 W/m -2,1 C -0,8 C 0,0 km/h (0 Bft)
24/12/2011 22:50 -0,9 C 91 % 1034,6 hPa 0,0 mm 0,0 km/h (0 Bft) SE 135 0 min 0 W/m -2,2 C -0,9 C 0,0 km/h (0 Bft)
24/12/2011 22:55 -0,9 C 91 % 1034,7 hPa 0,0 mm 1,4 km/h (1 Bft) NE 45 0 min 0 W/m -2,2 C -0,9 C 4,0 km/h (1 Bft)
24/12/2011 23:00 -0,9 C 91 % 1034,7 hPa 0,0 mm 0,0 km/h (0 Bft) E 90 0 min 0 W/m -2,2 C -0,9 C 0,0 km/h (0 Bft)
24/12/2011 23:05 -0,9 C 91 % 1034,7 hPa 0,0 mm 0,0 km/h (0 Bft) NE 45 0 min 0 W/m -2,2 C -0,9 C 0,0 km/h (0 Bft)
24/12/2011 23:10 -0,9 C 91 % 1034,8 hPa 0,0 mm 0,0 km/h (0 Bft) NE 45 0 min 0 W/m -2,2 C -0,9 C 0,0 km/h (0 Bft)
24/12/2011 23:15 -0,9 C 91 % 1034,8 hPa 0,0 mm 0,0 km/h (0 Bft) E 90 0 min 0 W/m -2,2 C -0,9 C 2,9 km/h (1 Bft)
24/12/2011 23:20 -0,9 C 91 % 1034,8 hPa 0,0 mm 0,0 km/h (0 Bft) E 90 0 min 0 W/m -2,2 C -0,9 C 0,0 km/h (0 Bft)
24/12/2011 23:25 -0,9 C 91 % 1034,9 hPa 0,0 mm 0,0 km/h (0 Bft) E 90 0 min 0 W/m -2,2 C -0,9 C 0,0 km/h (0 Bft)
24/12/2011 23:30 -0,9 C 91 % 1034,8 hPa 0,0 mm 0,0 km/h (0 Bft) E 90 0 min 0 W/m -2,2 C -0,9 C 0,0 km/h (0 Bft)
24/12/2011 23:35 -0,9 C 91 % 1034,8 hPa 0,0 mm 0,0 km/h (0 Bft) E 90 0 min 0 W/m -2,2 C -0,9 C 0,0 km/h (0 Bft)
24/12/2011 23:40 -1,0 C 91 % 1034,9 hPa 0,0 mm 0,0 km/h (0 Bft) E 90 0 min 0 W/m -2,3 C -1,0 C 0,0 km/h (0 Bft)
24/12/2011 23:45 -1,1 C 91 % 1034,9 hPa 0,0 mm 0,7 km/h (0 Bft) E 90 0 min 0 W/m -2,4 C -1,1 C 2,9 km/h (1 Bft)
24/12/2011 23:50 -1,1 C 91 % 1035,0 hPa 0,0 mm 3,2 km/h (1 Bft) E-SE 112 0 min 0 W/m -2,4 C -1,1 C 3,2 km/h (1 Bft)
24/12/2011 23:55 -0,9 C 91 % 1034,9 hPa 0,0 mm 2,5 km/h (1 Bft) E-SE 112 0 min 0 W/m -2,2 C -0,9 C 3,6 km/h (1 Bft)
_ Min-Heure 23:50 14:30 00:05 - 23:40 - - - - 23:50 23:50 23:40
Minimum _ -1,1 C 71 % 1026,1 hPa - 0,0 km/h (0 Bft) - - - - -2,4 C -1,1 C 0,0 km/h (0 Bft)
_ Max-Heure 14:05 10:15 13:55 08:20 15:40 - - 23:55 23:55 12:20 14:05 00:20
Maximum _ 10,0 C 96 % 1035,3 hPa 0,1 mm 9,7 km/h
NO (2 Bft)
- - 0 min 0 W/m 6,6 C 10,0 C 22,3 km/h
O-SO (4 Bft)
Moyenne _ 3,8 C 87 % 1032,9 hPa #0,1 mm 1,6 km/h (1 Bft) NO - #0 min. 0 W/m 1,8 C 3,7 C 3,4 km/h (1 Bft)
Saint Bonnet de Bellac- Haute Vienne - France